Location: Fours
(44.3167°N, 6.7000°E)
Time: 21:39:33
(UTC+00:00)

Cosmos 2227 - Pass Details

Date: 05 June 2022
Orbit: 832 x 863 km, 71.0° (Epoch: 03 July)

Event Time Altitude Azimuth Distance (km) Brightness Sun altitude
Rises 20:29:12 0° 323° (NW) 3,449 9.6 -11.1°
Reaches altitude 10° 20:32:06 10° 310° (NW) 2,509 8.2 -11.5°
Maximum altitude 20:36:35 24° 259° (WSW) 1,712 6.2 -12.0°
Drops below altitude 10° 20:41:04 10° 207° (SSW) 2,493 6.4 -12.5°
Enters shadow 20:43:55 - 194° (SSW) 3,408 7.0 -12.8°
